{"data":{"norad_id":68544,"epoch":"2026-05-25T00:18:38.397024Z","epoch_age_seconds":73636,"freshness":"FRESH","line1":"1 68544U 26070C   26145.01294441  .00026336  00000+0  78778-3 0  9994","line2":"2 68544  53.1622   7.8316 0000360  16.6729 343.4285 15.34402289  8244","mean_motion":15.34402289,"eccentricity":3.6e-5,"inclination_deg":53.1622,"raan_deg":7.8316,"arg_perigee_deg":16.6729,"mean_anomaly_deg":343.4285,"bstar":0.00078778,"rev_number":824,"period_min":93.847618080554,"perigee_km":462.45016682145,"apogee_km":462.9427068289,"semimajor_km":6840.8334368252,"source":"CELESTRAK","updated_at":"2026-05-25T13:38:21.959593Z"}}